Tracking 30918 objects as of 2-Jul-2025
HD Live streaming from Space Station
objects crossing your sky now

TIROS 9

Track TIROS 9 now!
10-day predictions
TIROS 9 is classified as:


NORAD ID: 978
Int'l Code: 1965-004A
Perigee: 710.3 km
Apogee: 2,567.0 km
Inclination: 96.4 °
Period: 118.9 minutes
Semi major axis: 8009 km
RCS: 0.8367 m2 (medium)
Launch date: January 22, 1965
Source: United States (US)
Launch site: AIR FORCE EASTERN TEST RANGE (AFETR)
Your satellite tracking list
Your tracking list is empty




NASA's NSSDC Master Catalog

Two Line Element Set (TLE):
1 00978U 65004A   25182.87134987  .00000198  00000-0  25665-3 0  9999
2 00978  96.4002 138.1231 1159034  72.4612 299.9556 12.11108643669206
Source of the keplerian elements: AFSPC